DELTA 1 DEB, 12542

Orbit data source: Space-Track

DELTA 1 DEB, 12542 is space debris in SSO originally from a launch on Thu, 29 Jul 1976 UTC launched from the Air Force Western Test Range (AFWTR). Debris objects in space refer to the collection of defunct objects orbiting the Earth. Examples of debris include non-operational satellites, rocket bodies, and fragments generated from explosions, collisions, or faulty payload assembly.

Loading next visibility...
Identifier
12542, 1976-077DX
Orbit
SSO
Country
Flag of USUS
Related business
Manufacturer
Unknown
Mission
Spacecraft
Bus & Motor
Unknown
Mass
Unknown
Launch date (UTC)
1976-07-29 (49 years ago)
Launch vehicle
Unknown
Launch site
Air Force Western Test Range (AFWTR)
Object type
Payload
Rocket body
Debris
Shape & HBR
Unknown shape, 0.1 m
Radar Cross Section
Medium (>0.1 m² and <1 m²)

Expand to show TLE details & history
Last TLE update: 17 hours ago

TLE from 17 hours ago
0 DELTA 1 DEB
1 12542U 76077DX  25288.87799272  .00000038  00000-0  53094-3 0  9992
2 12542 101.9216 266.9685 0061064  30.4852 359.2870 12.52362753 47503
Epoch: 2025-10-15T21:04Z
TLE epoch observation values (Epoch: 2025-10-15T21:04:18.571Z)
Latitude
29.10547°
Longitude
-80.47112°
Altitude
1,410.113 km
Speed
7.18 km/s
True Right ascension
17h 21m 00s
True Declination
28° 58' 18"
Sunlit
Object was in daylight at epoch
Visualization orbit readout
Latitude
Unknown
Longitude
Unknown
Altitude
Unknown
Speed
Unknown
Apparent Right ascension
Unknown
Apparent Declination
Unknown
Sunlit
N/A
Visualization observer readout
Local Sidereal Time
09:11:01
Azimuth
Unknown
Elevation
Unknown
Doppler factor
Unknown
Orbital elements
Apogee altitude
1,499.997 km
Perigee altitude
1,404.366 km
Semi-major axis
7,830.318 km
Eccentricity
0.00611
Inclination
101.9216°
RAAN
266.9685°
Arg. of periapsis
30.4852°
True anomaly
359.27823°
Mean anomaly
359.287°
Eccentric anomaly
359.28262°
Mean motion
3.13238 °/min
Orbital period
114.93 mins
BSTAR
0.00053094
Loading maneuver chart data...
Computing Atmospheric mass density...
Loading historical data...
Loading historical data...
Loading historical data...
Loading historical data...
Loading historical data...
Loading historical data...
Loading historical data...

Documentation

Showing up to 5 results
|